Regional Weather Roundup
Issued by NWS Charleston, SC

Current Version | Previous Version | Text Only | Print | Product List | Glossary Off
Versions: 1 2 3 4 5 6 7 8 9 10 11 12 13 14 15 16 17 18 19 20 21 22 23 24 25 26 27 28 29 30 31 32 33 34 35 36 37 38 39 40 41 42 43 44 45 46 47 48 49 50
000 ASUS42 KCHS 301326 RWRCHS REGIONAL WEATHER ROUNDUP NATIONAL WEATHER SERVICE CHARLESTON SC 900 AM EDT THU JUL 30 2015 NOTE: "FAIR" INDICATES FEW OR NO CLOUDS BELOW 12,000 FEET WITH NO SIGNIFICANT WEATHER AND/OR OBSTRUCTIONS TO VISIBILITY. NOT ALL STATIONS ARE QUALITY CONTROLLED BY THE NATIONAL WEATHER SERVICE. USE DATA WITH CAUTION...ESPECIALLY DEWPOINT OBSERVATIONS. SCZ027-030-031-034>040-042>050-301400- ...SOUTHEAST SOUTH CAROLINA... CITY SKY/WX TMP DP RH WIND PRES REMARKS N CHARLESTON MOSUNNY 83 76 79 N9 29.96S HX 91 WATERFRONT PRK N/A 81 78 91 N6 29.92R MOUNT PLEASANT FAIR 82 77 83 NW6 29.96R HX 91 JOHNS ISLAND FAIR 82 77 83 NW10 29.96R HX 91 PINOPOLIS NOT AVBL MONCKS CORNER FAIR 82 75 78 CALM 29.96S SUMMERVILLE FAIR 82 77 83 N6 29.97S HX 91 BEAUFORT MCAS MOSUNNY 84 74 71 N5 29.96R HX 91 BEAUFORT ARPT FAIR 82 77 83 CALM 29.96R HX 91 HILTON HEAD IS SUNNY 82 73 74 CALM 29.97R WALTERBORO SUNNY 86 73 66 NW3 29.97S HX 93 ALLENDALE FAIR 84 75 74 CALM 29.97R HX 92 ...SOUTHERN MIDLANDS AND PEE DEE... CITY SKY/WX TMP DP RH WIND PRES REMARKS GEORGETOWN NOT AVBL KINGSTREE NOT AVBL ORANGEBURG SUNNY 83 73 72 NW7 29.98R BARNWELL FAIR 84 75 74 CALM 29.98R HX 92 AIKEN FAIR 81 70 69 W3 30.02S MANNING FAIR 82 72 69 NW6 29.97S COLUMBIA MOSUNNY 84 72 67 W5 29.97R SUMTER SUNNY 83 73 72 W7 29.96R FLORENCE SUNNY 83 73 72 CALM 29.97R MYRTLE BEACH MOSUNNY 82 73 74 N8 29.98R N MYRTLE BEACH SUNNY 80 74 81 NE7 29.96R $$ GAZ063-065-086>088-099>101-113>116-118-119-134>141-150-301400- ...SOUTHEAST GEORGIA... CITY SKY/WX TMP DP RH WIND PRES REMARKS SAVANNAH ARPT MOSUNNY 84 71 65 CALM 29.95S HUNTER AAF SUNNY 83 73 71 NE2 29.93R HX 90 FORT STEWART PTSUNNY 82 73 73 NE2 29.93R STATESBORO PTSUNNY 80 76 87 CALM 29.97R SYLVANIA PTSUNNY 82 76 82 N5 29.98R HX 90 CLAXTON FAIR 79 73 83 CALM 29.96S ...CSRA...CENTRAL AND FAR SOUTHEAST GEORGIA... CITY SKY/WX TMP DP RH WIND PRES REMARKS THOMSON SUNNY 82 79 91 NW5 30.03R HX 92 AUGUSTA-BUSH SUNNY 80 75 84 CALM 29.97R AUGUSTA-DANIEL SUNNY 83 73 72 NW5 29.99R SWAINSBORO FAIR N/A N/A N/A CALM 29.98S VIDALIA HVY RAIN 79 75 89 CALM 29.99R EASTMAN FAIR 82 79 92 CALM 30.01R HX 92 HAZLEHURST FAIR 81 78 91 CALM 29.97R HX 90 ALMA MOSUNNY 80 76 87 W3 29.97R WAYCROSS CLOUDY 80 79 96 CALM 29.97 JESUP FAIR 81 77 89 CALM 29.97R BAXLEY PTSUNNY 79 77 94 CALM 29.96S BRUNSWICK MOSUNNY 81 75 83 CALM 29.98R SAINT SIMONS SUNNY 81 75 82 SW3 29.96R $$ SCZ027-028-034-036>038-045-046-048>050-GAZ119-141-301400- ...LAKE AND SUPPLEMENTAL COASTAL OBSERVATIONS... STATION/POSITION TIME TEMP WIND PRES WAVE SWELL AIR SEA DIR/SP/G HT/PER HT/PER/DIR (UTC) (F) (DEG/KT/KT) (MB) (FT/S) (FT/S/D) UPR LAKE MARION NOT AVBL WINYAH BAY 1200 76 350/ 4 1013.0 LAKE MURRAY 1200 80 260/ 4/ 5 1014.2R ACE BASIN NERRS NOT AVBL FORT PULASKI 1206 81 N/A SAPELO ISLAND 1300 84 50/ 5 1014.0S $$ ANZ835-935-AMZ111-154-330-350-352-354-370-450-454-472-301400- ...C-MAN AND BUOY OBSERVATIONS... STATION/POSITION TIME TEMP WIND PRES WAVE SWELL AIR SEA DIR/SP/G HT/PER HT/PER/DIR (UTC) (F) (DEG/KT/KT) (MB) (FT/S) (FT/S/D) BUOY 41004 1250 82 84 20/ 10/ 12 1013.5R 3/ 8 3/ 8 BUOY 41008 1250 82 82 30/ 8/ 8 1014.1R 2/ 8 2/110/ 8 FOLLY BEACH CMAN 1300 81 350/ 6/ 7 1014.3R CAPERS NEARSHORE 1208 80 360/ 8/ 10 1014.1R FRIPP NEARSHORE 1200 81 350/ 8/ 10 1013.5R STATION/POSITION TIME TEMP WIND PRES WAVE SWELL AIR SEA DIR/SP/G HT/PER HT/PER/DIR (UTC) (F) (DEG/KT/KT) (MB) (FT/S) (FT/S/D) 5E ST. MARYS GA 1221 83 N/A 2/ 7 FRYING PAN BUOY 1250 83 84 30/ 8/ 10 1014.0R 4/ 8 3/160/ 8 BUOY 41025 1250 84 85 180/ 17/ 19 1014.3R 4/ 5 2/100/ 8 CAPE LOOKOUT NC 1300 82 170/ 12/ 13 1013.4R BUOY 41002 1250 78 81 200/ 21/ 29 1015.6R 7/ 8 BUOY 41010 1220 82 84 240/ 16/ 21 1014.7R ST AUGUSTINE FL 1300 79 81 260/ 5/ 7 1015.8R $$

USA.gov is the U.S. government's official web portal to all federal, state and local government web resources and services.